Total_Precipitation_Accumulation
0.59 0.37 0.55 0.61 0.47 0.40 0.39 0.42 0.47 0.51 0.49 0.42 0.42 0.48 0.54 0.50 0.51 0.61 0.77 0.98 1.25 1.53 1.85 2.07 2.16 2.31 2.43 2.44 2.56 2.73 2.61 2.71 2.92 2.91 2.87 2.90 2.87 2.75 2.90 2.95 2.78 2.49 2.53
0.61 0.38 0.51 0.59 0.52 0.43 0.38 0.41 0.46 0.46 0.46 0.43 0.38 0.44 0.59 0.57 0.57 0.65 0.85 1.09 1.30 1.47 1.66 1.85 2.02 2.05 2.11 2.15 2.25 2.53 2.60 2.67 2.96 3.33 3.44 3.31 3.18 2.97 2.96 3.09 3.08 2.88 2.69
0.74 0.55 0.49 0.55 0.52 0.44 0.39 0.42 0.43 0.43 0.46 0.45 0.38 0.37 0.44 0.48 0.54 0.68 0.77 1.01 1.30 1.49 1.67 1.72 1.88 1.81 1.78 1.81 2.02 2.26 2.37 2.61 2.96 3.48 3.94 3.76 3.39 3.34 3.15 2.96 2.94 2.74 2.76
0.69 0.68 0.53 0.55 0.54 0.44 0.40 0.43 0.47 0.45 0.43 0.42 0.38 0.37 0.41 0.50 0.58 0.68 0.75 0.92 1.36 1.64 1.72 1.68 1.78 1.81 1.79 1.83 1.85 1.94 2.12 2.44 2.91 3.29 3.76 3.69 3.63 3.93 3.37 2.81 2.69 2.60 2.67
0.62 0.63 0.65 0.58 0.56 0.51 0.49 0.50 0.51 0.49 0.44 0.45 0.46 0.45 0.51 0.58 0.59 0.68 0.82 0.93 1.21 1.55 1.77 1.78 1.72 1.79 1.74 1.69 1.64 1.81 2.02 2.32 2.84 3.03 3.33 3.93 4.36 4.27 3.60 3.02 2.77 2.65 2.64
0.67 0.66 0.67 0.65 0.66 0.65 0.61 0.60 0.58 0.52 0.50 0.52 0.53 0.55 0.60 0.67 0.72 0.77 0.99 1.21 1.33 1.54 1.63 1.61 1.61 1.70 1.61 1.49 1.50 1.73 1.96 2.39 2.63 2.66 3.19 3.94 3.87 3.80 3.53 3.29 2.99 2.78 2.61
0.73 0.87 0.73 0.70 0.73 0.75 0.76 0.71 0.69 0.63 0.62 0.62 0.62 0.64 0.67 0.75 0.85 0.88 1.09 1.42 1.63 1.74 1.69 1.60 1.51 1.47 1.35 1.31 1.48 1.68 1.93 2.24 2.32 2.77 3.29 3.66 3.48 3.40 3.38 3.25 3.02 2.79 2.60
0.77 0.84 0.80 0.76 0.78 0.80 0.86 0.91 0.88 0.80 0.76 0.74 0.77 0.75 0.68 0.68 0.78 0.96 1.17 1.43 1.68 1.78 1.71 1.56 1.50 1.39 1.31 1.40 1.54 1.76 1.90 1.86 1.87 2.43 3.04 3.22 2.94 3.10 3.31 3.09 2.89 2.71 2.56
0.87 0.99 1.00 1.05 1.04 1.08 1.17 1.16 1.10 1.02 0.98 0.91 0.86 0.80 0.75 0.73 0.82 0.97 1.23 1.47 1.69 1.78 1.66 1.52 1.47 1.43 1.45 1.56 1.62 1.71 1.77 1.81 1.86 2.20 2.76 3.19 2.73 2.93 3.29 3.14 2.87 2.71 2.54
1.35 1.44 1.48 1.54 1.49 1.40 1.33 1.29 1.23 1.16 1.12 1.04 0.92 0.86 0.87 0.91 1.03 1.20 1.23 1.46 1.72 1.85 1.72 1.63 1.60 1.53 1.58 1.66 1.71 1.77 1.91 1.78 1.76 2.08 2.63 2.73 2.66 3.10 3.44 3.20 2.91 2.76 2.54
2.03 2.02 1.89 1.87 1.80 1.77 1.62 1.40 1.47 1.39 1.34 1.27 1.18 1.11 1.18 1.28 1.48 1.59 1.46 1.74 1.97 2.02 1.93 1.92 1.89 1.81 1.80 1.82 1.90 1.82 1.78 1.61 1.85 2.23 2.82 2.85 3.08 3.40 3.64 3.47 3.12 2.88 2.67
2.57 2.45 2.16 2.23 2.21 2.10 1.94 1.91 1.92 1.76 1.77 1.77 1.78 1.56 1.69 2.08 2.19 1.90 2.12 2.30 2.61 2.54 2.28 2.25 2.17 1.98 1.85 1.87 2.13 2.06 1.62 1.51 1.85 2.18 2.58 2.88 3.19 3.56 3.69 3.53 3.21 2.95 2.80
2.64 2.44 2.50 2.70 2.57 2.60 2.80 2.82 2.58 2.46 2.49 2.36 2.39 2.23 2.33 2.36 2.27 2.31 2.53 2.70 3.01 3.08 2.90 2.74 2.43 2.07 2.03 2.17 2.20 1.95 1.76 1.74 1.85 2.08 2.42 2.77 3.08 3.49 3.69 3.57 3.27 3.06 2.97
2.98 2.67 2.72 2.75 2.78 2.90 3.05 3.24 3.28 3.06 3.04 2.91 2.87 2.68 2.79 2.88 2.92 2.92 3.16 3.34 3.64 3.88 3.89 3.42 2.94 2.75 2.50 2.38 2.22 2.14 2.00 1.93 2.10 2.35 2.61 2.65 2.82 3.16 3.46 3.55 3.40 3.22 3.13
3.52 3.23 3.11 3.24 3.07 3.03 3.33 3.59 3.49 3.54 3.43 3.55 3.55 3.22 3.29 3.29 3.33 3.59 3.69 4.02 4.10 4.25 4.29 3.97 3.35 3.08 2.92 2.68 2.43 2.31 2.26 2.18 2.29 2.39 2.64 2.69 2.68 2.92 3.31 3.57 3.60 3.51 3.55
3.91 3.77 3.57 3.49 3.42 3.33 3.56 3.91 4.06 3.90 3.87 3.84 3.98 3.78 3.68 3.72 3.87 3.99 4.07 4.36 4.29 4.11 4.25 4.09 3.58 3.30 3.09 2.97 2.58 2.30 2.37 2.55 2.46 2.45 2.69 2.72 2.64 2.69 3.04 3.51 3.83 4.01 4.11
4.12 3.94 3.92 3.66 3.89 4.02 4.27 4.34 4.49 4.64 4.57 4.38 4.30 4.35 4.22 4.29 4.45 4.34 4.53 4.71 4.54 4.29 4.33 4.25 4.04 3.64 3.39 3.31 3.03 2.70 2.62 2.71 2.72 2.86 2.97 2.92 2.90 2.89 3.06 3.33 3.66 3.95 4.16
4.09 4.14 4.27 3.99 4.09 4.39 4.47 4.54 4.80 5.16 5.22 4.98 4.75 4.73 4.62 4.78 4.94 5.03 4.92 4.82 4.68 4.48 4.44 4.57 4.31 3.93 3.80 3.78 3.53 3.12 2.81 2.92 2.98 2.99 3.05 3.05 3.21 3.13 3.17 3.16 3.32 3.59 3.87
4.05 4.07 4.30 4.52 4.39 4.64 4.79 4.89 5.16 5.48 5.66 5.48 5.25 5.07 5.08 5.09 5.03 5.21 5.26 5.19 4.97 4.83 4.77 4.43 4.37 4.20 4.15 4.05 3.57 3.33 2.98 2.84 2.93 2.92 2.99 3.02 3.23 3.35 3.36 3.11 3.19 3.54 3.78
4.17 4.30 4.42 4.76 4.81 5.11 5.25 5.12 5.34 5.53 5.59 5.54 5.49 5.43 5.55 5.61 5.41 5.45 5.38 5.32 5.23 5.20 5.10 4.91 4.78 4.67 4.37 4.19 3.71 3.45 3.20 2.89 2.81 2.79 2.76 2.85 2.88 2.92 3.03 3.04 3.07 3.06 3.39
4.45 4.55 4.55 4.71 5.02 5.18 5.31 5.36 5.77 5.82 5.65 5.85 6.09 5.98 6.11 6.15 5.88 5.81 5.69 5.60 5.40 5.26 5.17 5.07 4.91 4.74 4.39 4.20 4.06 3.77 3.32 2.90 2.79 2.71 2.58 2.64 2.61 2.55 2.69 2.80 3.01 2.96 2.92
4.50 4.67 4.93 5.05 5.11 5.24 5.69 6.15 6.58 6.95 6.90 6.79 6.97 7.02 6.78 6.64 6.52 6.27 6.30 6.04 5.70 5.48 5.20 4.96 4.80 4.55 4.16 4.11 4.13 4.25 3.85 3.47 2.77 2.34 2.33 2.29 2.22 2.23 2.35 2.47 2.63 2.74 2.71
4.26 4.53 4.77 5.08 5.46 6.01 6.67 7.14 7.42 7.81 7.97 7.71 7.43 7.28 7.02 6.79 6.58 6.25 6.06 5.99 5.73 5.20 4.97 4.78 4.51 4.39 4.18 4.02 3.90 4.13 3.96 3.62 3.13 2.69 2.30 2.10 2.10 2.19 2.25 2.33 2.38 2.40 2.39
3.84 4.21 4.66 5.06 5.68 6.60 7.30 7.75 8.17 8.34 8.37 8.20 7.90 7.45 7.06 6.64 6.21 5.86 5.63 5.39 5.18 4.86 4.68 4.30 4.17 4.19 4.20 3.97 3.81 3.54 3.29 3.16 3.26 3.04 2.60 2.33 2.24 2.17 2.11 2.05 2.08 2.19 2.23
3.61 3.98 4.44 4.90 5.63 6.38 7.02 7.65 8.19 8.37 8.34 8.06 7.61 7.05 6.54 6.08 5.61 5.16 4.91 4.67 4.43 4.22 4.02 3.73 3.65 3.70 3.80 3.75 3.65 3.55 3.40 3.24 3.04 2.94 2.82 2.73 2.60 2.32 2.14 2.07 2.02 2.03 2.02
3.28 3.66 4.15 4.59 5.11 5.73 6.20 6.81 7.27 7.49 7.42 7.00 6.43 5.81 5.42 5.18 4.91 4.59 4.30 4.07 3.75 3.54 3.35 3.20 3.07 3.02 3.15 3.24 3.28 3.27 3.32 3.31 3.19 3.16 2.97 2.79 2.71 2.48 2.28 2.16 2.08 2.02 1.95